星链-5144 (STARLINK-5144 )

导读 | 星芒AI

STARLINK-5144 是 SpaceX Starlink 项目中的一颗低轨通信卫星,属于第二代 Starlink 卫星(Gen2)批次。该卫星于2023年发射,旨在为全球用户提供高速、低延迟的互联网服务。它运行在约550公里高的近地轨道,配备先进通信设备和激光链路,以提升网络效率和覆盖范围。作为 Starlink 卫星群的一部分,STARLINK-5144 支持 SpaceX 推动全球互联网接入和未来太空通信网络的发展目标。

基本信息
目录编号:
54072
目录名称:
STARLINK-5144
国际标识:
2022-136X
轨道中心:
EARTH
卫星名称:
星链-5144
卫星全名:
星链-5144 (STARLINK-5144 )
卫星状态:
已陨落 最后检测时间 2025-01-09
发射日期:
2022-10-20 UTC
国别 :
美国 (US)
星等 :
--
轨道信息
数据来源 国际轨道数据
星历时间: 2025-01-09T18:48:02+0800
轨道信息已过期299天
半长轴: 6521.669km
偏心率: 0.0003898
轨道倾角: 53.188°
近地点辐角 314.731°
升交点赤经 61.467°
平近点角 139.002°
近地点: 140.991km
远地点: 146.077km
周期: 87.357分钟
每日圈数: 16.484079
详细信息
固有亮度:
5
最大亮度:
2.5
卫星平台:
Starlink v1.5
覆盖范围:
全球
运营商:
太空探索技术公司
运营商所在国:
美国
制造商(研发单位):
太空探索技术公司
制造商所在国:
美国
使用方式:
暂无
卫星简介
星链(Starlink)计划是由太空探索技术公司(SpaceX)提出的一个巨型低轨卫星互联网星座项目,计划在2019年至2024年间在太空搭建由约1.2万颗卫星组成的“星链”网络,其中1584颗将部署在地球上空550千米处的近地轨道,并从2020年开始工作。该卫星仍在工作。